Black Gold Race - TEST INVENTORY GROUP 1-3

Station: Waller Tx - T Race

Distance: 1 Miles

Release: 31-May-2024 12:00

Weather Release:    Arrival:

Wind at Release:     Wind at Arrival:

Temp at Release: °    Temp at Arrival: °

Lofts: 290

Birds: 690

Clocked: 690

Good Luck to Everyone!
Drops Pos Breeder Pigeon Name Color Sex Team Ent Arrival Speed To Win Elg Pd400
1 Lonestar Loft - TX 0415-AU24-CLG BB C 0 1 12:17:48.50 98.8301 00:00:00 Yes
2 Sikon - IL 1607-AU24-SIKO BBWF C 0 1 12:17:48.51 98.8292 00:00:00 Yes
3 JAZZY R B LOFT - FL 0325-AU24-JAZZ Life Saver👹 BB H 0 1 12:17:48.54 98.8264 00:00:00 Yes
4 Rpv Pigeon Loft - CA 35997-AU24-JEDD BB C 0 1 12:17:48.55 98.8255 00:00:00 Yes
5 Las Vegas Syndicate - NV 0028-AU24-MESC Kram DCWF C 0 1 12:17:48.57 98.8237 00:00:00 Yes
6 Big Andy - FL 0838-AU24-BIGA BCWF C 0 1 12:17:53.30 98.3881 00:00:05 Yes
7 Rachel Olivieri - CA 0043-AU24-LKPC BB H 0 1 12:18:01.49 97.6431 00:00:13 Yes
8 Kwan Loft - CA 54708-AU24-JEDD REDS C 0 1 12:18:28.93 95.2269 00:00:40 Yes
9 Ariagny Loft - FL 48678-AU24-ARPU SIL C 0 1 12:18:28.95 95.2252 00:00:40 Yes
10 Ramirez Loft - TX 0009-MX24-RAMI BC H 0 1 12:18:29.99 95.1360 00:00:41 Yes
11 Kwan Loft - CA 54707-AU24-JEDD REDS H 0 2 12:18:40.02 94.2840 00:00:52 Yes
12 Lonestar Loft - TX 0421-AU24-CLG BBWF C 0 2 12:18:45.87 93.7941 00:00:57 Yes
13 Huan Loft - NC 4016-AU24-RDU BB C 0 1 12:18:49.60 93.4844 00:01:01 Yes
14 Crescendo Loft - NM 28537-AU24-FOYS BB C 0 1 12:18:50.26 93.4298 00:01:02 Yes
15 Genesis Syndicate Loft - AZ 0343-AU24-GENE BB H 0 1 12:18:59.74 92.6527 00:01:11 Yes
16 Machismo Loft - TX 17703-AU24-ARPU BB C 0 1 12:19:02.04 92.4661 00:01:14 Yes
17 Irish Syndicate - AZ 7759-AU24-IRIS BB C 0 1 12:19:16.32 91.3242 00:01:28 Yes
18 Hanely Loft - FL 0051-AU24-KMO8 REDC C 0 1 12:19:22.37 90.8489 00:01:34 Yes
19 Mullins Family Loft - CA 56290-AU24-ARPU BB C 0 1 12:19:32.17 90.0893 00:01:44 Yes
20 Tres Coronas Loft - CA 0186-AU24-SMRS ZAPATA BB C 0 1 12:19:32.91 90.0325 00:01:44 Yes
21 Chachi Loft - FL 0088-AU24-CHAC PENC C 0 1 12:20:10.14 87.2626 00:02:22 Yes
22 0 MAKO LOFT - TX 1024-AU24-MAKO BB H 0 1 12:20:11.17 87.1884 00:02:23 Yes
23 HayesBrothersLoft - NC 17684-AU24-FOYS SIL C 0 1 12:20:44.63 84.8445 00:02:56 Yes
24 EscapeULoft - CO 2469-AU24-ZEPH BB H 0 1 12:21:00.94 83.7470 00:03:12 Yes
25 Milestone Loft - CA 6509-AU24-JEDD 🌺🌺🌺🌺🌺🌺 BB H 0 1 12:21:06.39 83.3866 00:03:18 Yes
26 Tx Lin Loft - TX 0319-AU24-TXLI FLlin奶酪¥123Tilson BC H 0 1 12:21:17.44 82.6653 00:03:29 Yes
27 Mccallister Loft - AZ 0567-AU24-DUTC BB C 0 1 12:21:19.24 82.5490 00:03:31 Yes
28 Andy Waclaw - IL 8844-AU24-CHIC BB H 0 1 12:21:27.49 82.0201 00:03:39 Yes
29 Eastern Pearl Loft - VA 1641-AU24-EPL 1245🏆949 BBPD C 0 1 12:21:33.10 81.6642 00:03:45 Yes
30 Big Andy - FL 0854-AU24-BIGA BCWF H 0 2 12:21:43.56 81.0089 00:03:55 Yes
31 Shift N Time - TX 2409-AU24-SHIF BCWF C 0 1 12:21:45.16 80.9096 00:03:57 Yes
32 Doug Sanders Loft - CA 0331-AU24-SAND BC H 0 1 12:21:55.35 80.2828 00:04:07 Yes
33 Ramirez Loft - TX 0076-MX24-RAMI BBWF C 0 2 12:22:12.36 79.2579 00:04:24 Yes
34 0 MAKO LOFT - TX 1066-AU24-MAKO BB C 0 2 12:22:25.36 78.4920 00:04:37 Yes
35 Rampage Racing - TX 0022-AU24-PIGE BB C 0 1 12:22:27.92 78.3429 00:04:39 Yes
36 Racing Pigeon Mall - WA 0419-AU24-RPM BC C 0 1 12:22:37.89 77.7677 00:04:49 Yes
37 Alfos Loft - TX 0003-AU24-ALFS BB C 0 1 12:22:41.24 77.5763 00:04:53 Yes
38 Dmv Loft - FL 0342-AU24-DMV MARTINEZ 342 BB C 0 1 12:22:42.99 77.4767 00:04:54 Yes
39 Savich Racing Pigeons - VT 6054-AU24-CVR Washington DC C 0 1 12:22:55.86 76.7520 00:05:07 Yes
40 Shroh Loft - NY 0202-AU24-FOYS Paid $150 Extra DC C 0 1 12:23:04.04 76.2984 00:05:16 Yes
41 Ramirez Loft - TX 0077-MX24-RAMI BB C 0 3 12:23:14.96 75.7011 00:05:26 Yes
42 Crescendo Loft - NM 28543-AU24-FOYS BBPD C 0 2 12:23:17.33 75.5727 00:05:29 Yes
43 Tejano Loft - TX 2408-AU24-TEJA BCWF C 0 1 12:23:21.91 75.3258 00:05:33 Yes
44 Irish Syndicate - AZ 7754-AU24-IRIS BB C 0 2 12:23:24.95 75.1628 00:05:36 Yes
45 Dmv Loft - FL 0302-AU24-DMV MARTINEZ 302 BCWF C 0 2 12:23:27.14 75.0458 00:05:39 Yes
46 Rodriguez Loft - TX 19792-AU24-LOUI ORLANDO BB C 0 1 12:23:29.74 74.9074 00:05:41 Yes
47 B F L - TX 24002-AU24-BFL BB H 0 1 12:23:30.86 74.8480 00:05:42 Yes
48 Vasquez Lofts - CA 0004-AU24-VL BB C 0 1 12:23:31.26 74.8268 00:05:43 Yes
49 Yosvany Family loft - FL 48486-AU24-ARPU BB C 0 1 12:23:32.38 74.7674 00:05:44 Yes
50 Trinity Family Loft - TX 0789-AU24-TRIN PENC C 0 1 12:23:34.68 74.6459 00:05:46 Yes
51 Aaaa Family Loft - MD 35806-AU24-FOYS BB H 0 1 12:23:38.41 74.4496 00:05:50 Yes
52 Bob & Rusty - NV 17818-AU24-JEDD BCWF C 0 1 12:23:38.44 74.4480 00:05:50 Yes
53 Lopez / Saenz - CA 0085-AU24-TCH BC C 0 1 12:23:43.16 74.2011 00:05:55 Yes
54 Tx Lin Loft - TX 0316-AU24-TXLI 🌈🌈🌈🌈🌈🌈 BC C 0 2 12:23:43.71 74.1724 00:05:55 Yes
55 W T J Loft - TX 0655-AU24-WTJL 655-WTJ💎💎 BB C 0 1 12:23:45.11 74.0995 00:05:57 Yes
56 Do Drop In Loft - NC 0047-AU24-TRC BB H 0 1 12:23:45.14 74.0980 00:05:57 Yes
57 003 loft - MD 58056-AU24-ARPU BC C 0 1 12:23:45.92 74.0575 00:05:57 Yes
58 EscapeULoft - CO 2403-AU24-ZEPH BBWF H 0 2 12:23:48.13 73.9428 00:06:00 Yes
59 98 M J Loft - PA 4015-AU24-JIAN BBWF C 0 1 12:23:48.49 73.9242 00:06:00 Yes
60 Genesis Syndicate Loft - AZ 0363-AU24-GENE BB C 0 2 12:23:51.78 73.7543 00:06:03 Yes
61 Eastern Pearl Loft - VA 1645-AU24-EPL 681🏆1244 BB C 0 2 12:23:54.08 73.6361 00:06:06 Yes
62 Comanche Oaks Loft - TX 24151-AU24-ARPU GRIZ H 0 1 12:23:57.37 73.4675 00:06:09 Yes
63 Serrano Brothers Loft - FL 66404-AU24-ARPU BB C 0 1 12:23:57.72 73.4496 00:06:09 Yes
64 Lebresco-Rubino - PA 0404-IF24-PHX BB C 0 1 12:24:03.88 73.1363 00:06:15 Yes
65 Bay Diamond Team - CA 0086-AU24-TRAN BB C 0 1 12:24:04.27 73.1165 00:06:16 Yes
66 Duane Kugler Carter Mayotte - 0516-AU24-CART BB C 0 1 12:24:06.55 73.0013 00:06:18 Yes
67 Carroll Hoover - PA 6717-AU24-FOYS BB C 0 1 12:24:07.32 72.9624 00:06:19 Yes
68 Quintanilla Loft - FL 50066-AU24-ARPU BB C 0 1 12:24:11.03 72.7759 00:06:23 Yes
69 Tx Lin Loft - TX 0297-AU24-TXLI 🌈🌈🌈👊👊👊 BB C 0 3 12:24:13.34 72.6602 00:06:25 Yes
70 Do Drop In Loft - NC 0032-AU24-TRC BB H 0 2 12:24:14.23 72.6157 00:06:26 Yes
71 JAZZY R B LOFT - FL 0333-AU24-JAZZ That's my Boy👹 BB C 0 2 12:24:14.26 72.6143 00:06:26 Yes
72 Sikon - IL 1637-AU24-SIKO BBSP C 0 2 12:24:14.98 72.5783 00:06:26 Yes
73 Carroll Hoover - PA 6716-AU24-FOYS BB H 0 2 12:24:15.74 72.5404 00:06:27 Yes
74 AX Pigeons - CA 13738-AU24-JEDD BB C 0 1 12:24:17.41 72.4573 00:06:29 Yes
75 High Hopes - NV 17806-AU24-JEDD BB H 0 1 12:24:19.81 72.3382 00:06:31 Yes
76 SKYLAB RACE RESEARCH and DEVELOPMENT - MN 24191-AU24-UNIT BC C 0 1 12:24:20.93 72.2827 00:06:32 Yes
77 Zong Jing Tang - FL 79401-AU24-ARPU H H 0 1 12:24:21.33 72.2629 00:06:33 Yes
78 Big Andy - FL 0814-AU24-BIGA SSP C 0 3 12:24:22.10 72.2249 00:06:34 Yes
79 Kin Yung & William Yung Loft - TX 2429-AU24-KHY BB C 0 1 12:24:26.56 72.0052 00:06:38 Yes
80 Carrerafrenchie Loft - FL 7544-AU24-ARPU BB H 0 1 12:24:27.97 71.9361 00:06:39 Yes
81 Sdp Loft - TX 77392-AU24-ARPU BB H 0 1 12:24:29.31 71.8705 00:06:41 Yes
82 Aaron Loft - FL 5647-AU24-AA BC C 0 1 12:24:29.74 71.8494 00:06:41 Yes
83 Rottweiler Company Loft - MI 2481-AU24-ROTT GREEK 1467/Azulita VF BB C 0 1 12:24:30.14 71.8299 00:06:42 Yes
84 Alfos Loft - TX 0029-AU24-ALFS BB C 0 2 12:24:31.22 71.7772 00:06:43 Yes
85 Tx Lin Loft - TX 0296-AU24-TXLI 🌈🌈🌈👊👊👊 BB C 0 4 12:24:31.85 71.7464 00:06:43 Yes
86 Dong Family Loft - NY 0032-AU24-DONG 🎉347x18839🎉 BB H 0 1 12:24:33.34 71.6739 00:06:45 Yes
87 Crazy Als Lofts - CO 6538-AU24-CRAZ BB H 0 1 12:24:34.41 71.6219 00:06:46 Yes
88 Ferrer Family Loft - TX 24163-AU24-WIN BC C 0 1 12:24:36.23 71.5336 00:06:48 Yes
89 Medina Loft - TX 0057-AU24-JJME BB C 0 1 12:24:39.55 71.3731 00:06:51 Yes
90 PigeonMart - TX 0218-AU24-PIGE BCWF C 0 1 12:24:41.02 71.3022 00:06:53 Yes
91 JAZZY R B LOFT - FL 0327-AU24-JAZZ Dream Catcher👹 BB C 0 3 12:24:49.24 70.9087 00:07:01 Yes
92 Rampage Racing - TX 0059-AU24-PIGE PENC C 0 2 12:24:49.79 70.8825 00:07:01 Yes
93 Sikon - IL 1629-AU24-SIKO BB C 0 3 12:25:29.25 69.0535 00:07:41 Yes
94 Elías Rodríguez Loft - TX 10323-AU24-VITA BB C 0 1 12:25:31.51 68.9516 00:07:43 Yes
95 Mccallister Loft - AZ 0555-AU24-DUTC BB C 0 2 12:25:35.43 68.7755 00:07:47 Yes
96 Irish Syndicate - AZ 7746-AU24-IRIS BB C 0 3 12:25:41.53 68.5034 00:07:53 Yes
97 Serrano Brothers Loft - FL 66463-AU24-ARPU BB C 0 2 12:25:47.40 68.2435 00:07:59 Yes
98 Rachel Olivieri - CA 0032-AU24-LKPC BB H 0 2 12:25:48.81 68.1814 00:08:00 Yes
99 Sandstrom Brothers Loft - MN 0625-AU24-SLB RED C 0 1 12:25:50.36 68.1132 00:08:02 Yes
100 ARIZONA SYNDICATE - AZ 4166-AU24-AVI BC C 0 1 12:25:53.15 67.9909 00:08:05 Yes

There are 690 bird records

Note: These Race Results are unofficial and subject to change until verified by the Race Committee and declared final.

 

Ship Birds to:

Black Gold Race attn: Yoanny

31240 Pohl Rd
Waller TX 77484

cell 832-673-5350

email: blackgoldrace@gmail.com


windy
Click for Forecast for 77484 from weatherUSA